Temp
22 22 21 21 21 21 21 21 21 21 21 21 21 21 21 21 21 22 22 22 22 21 22 22 22 22 23 23 24 24 24 23 23 23 23 24 24 24 24 23 23 24 24 25 25 24 24 23 22 22 22 22 22 23 23 22 22 22 21 21 20 20 20 20 19 19 19 19 19 19 19 19 19 19 20 20 20 20 20 20 20 19 19 19 19 19
21 21 20 20 20 20 20 20 20 20 20 21 21 21 21 21 21 22 22 22 22 21 21 22 22 22 23 23 24 24 23 23 23 23 22 23 23 23 23 22 23 23 24 24 24 24 24 24 23 22 22 22 22 22 22 22 22 22 21 21 20 20 20 20 20 19 19 19 19 19 19 19 19 19 19 20 20 20 20 20 19 19 19 19 19 19
21 21 20 20 20 20 20 20 20 20 20 21 21 21 20 21 21 22 22 22 22 21 21 22 21 21 23 23 23 23 23 23 22 22 22 22 22 22 22 22 22 22 23 23 23 24 24 24 23 22 22 21 21 22 22 22 22 22 22 21 20 20 20 20 20 19 19 19 19 19 19 19 20 20 20 20 20 20 20 19 19 19 19 19 19 19
21 20 20 20 20 20 20 20 20 20 20 21 21 20 20 21 20 20 21 21 21 21 21 21 21 22 23 23 23 23 23 23 22 22 22 22 21 21 21 21 21 21 21 22 22 23 23 23 23 22 21 21 21 21 22 22 22 22 22 21 20 20 19 19 19 19 19 19 19 19 19 19 20 20 20 20 20 20 19 19 19 18 19 19 19 20
20 20 20 20 20 20 20 20 20 20 20 21 20 20 20 20 20 20 21 21 21 21 21 21 20 21 22 22 23 23 23 23 22 22 22 22 22 21 21 21 21 21 21 21 21 22 22 22 22 21 21 21 21 21 21 22 22 22 22 22 21 20 19 19 19 19 19 18 18 19 19 19 19 19 19 19 20 20 19 19 19 18 19 19 19 19
20 19 19 20 20 20 20 20 20 19 20 20 20 20 19 19 19 20 20 20 20 21 21 20 19 20 21 22 22 22 22 22 22 21 21 21 21 21 21 20 20 21 21 20 21 21 21 22 21 21 21 20 20 20 20 21 21 22 22 22 21 20 19 19 19 18 19 18 18 18 19 19 19 19 19 19 20 19 19 19 19 18 19 19 19 19
19 19 19 19 20 20 20 20 19 19 20 20 19 19 19 19 19 19 20 19 19 20 21 21 19 19 21 22 21 21 21 21 21 21 21 21 21 21 20 20 20 20 20 20 20 20 21 21 21 20 20 20 20 20 19 19 20 21 22 22 21 20 19 19 19 18 18 18 18 18 18 19 19 19 20 20 20 20 19 19 19 19 19 19 19 19
19 19 19 19 20 20 20 20 19 19 19 19 19 19 19 19 19 19 19 19 20 20 21 21 20 19 20 21 21 21 21 21 20 20 20 20 20 20 20 20 20 20 20 20 20 20 20 20 20 20 20 20 19 19 19 18 19 20 21 21 22 21 20 19 19 18 18 18 18 18 18 19 19 19 20 20 20 20 19 19 19 19 19 20 20 19
19 19 19 19 20 20 19 19 19 19 19 19 19 19 19 19 19 19 19 20 20 20 20 20 19 19 20 21 21 21 20 19 19 19 20 20 20 20 20 19 20 20 20 20 20 19 20 20 19 19 19 19 19 18 18 18 18 19 20 21 21 21 21 20 19 19 18 18 18 18 18 19 19 19 19 20 20 20 20 20 20 20 20 19 19 19
19 19 18 19 19 19 19 19 19 18 18 19 19 19 19 20 20 19 19 20 20 19 19 19 19 19 19 21 21 20 19 18 18 19 19 19 19 19 19 19 19 20 20 20 20 20 20 19 19 19 19 19 19 18 18 18 18 18 19 21 21 21 21 20 19 18 18 18 18 18 19 19 19 19 19 20 20 20 20 20 20 20 20 19 19 19
19 19 18 19 18 18 19 19 19 18 18 19 19 20 20 20 20 19 20 20 19 18 18 19 18 18 19 20 20 19 18 18 18 19 19 19 19 19 19 19 19 19 19 19 19 20 19 19 18 18 18 18 18 18 18 18 18 18 19 20 21 21 21 21 20 19 18 19 19 19 19 19 19 19 19 19 20 20 20 20 20 20 20 19 19 19
19 19 19 19 18 19 19 19 19 18 19 19 20 20 20 20 20 19 19 19 18 18 18 18 18 18 18 19 19 19 19 19 18 18 18 18 18 18 18 18 19 19 19 19 19 19 19 18 18 18 18 18 18 18 18 18 18 18 18 19 20 21 21 21 20 19 19 19 19 19 19 19 19 19 19 19 20 20 20 20 20 20 20 20 19 19
20 19 19 19 18 19 19 19 19 19 20 20 20 20 19 19 19 18 19 19 18 18 18 19 18 17 18 19 19 19 19 19 18 18 18 17 17 17 17 18 18 18 18 18 18 18 18 18 18 18 18 18 18 18 18 18 18 18 18 18 19 21 21 21 20 20 19 19 19 20 20 19 19 19 19 19 20 21 21 21 21 21 20 20 20 20
19 19 19 19 18 19 19 18 18 19 19 19 19 19 19 18 17 16 18 18 18 18 19 19 18 18 19 19 18 18 19 19 19 18 18 17 18 17 17 17 17 17 18 18 18 17 17 17 17 17 17 17 18 17 17 17 18 18 18 18 18 20 21 21 20 20 20 19 19 20 20 19 20 20 19 19 20 20 21 21 21 21 21 20 20 20
18 18 19 19 18 19 19 18 18 18 19 18 19 19 18 17 16 16 16 17 17 17 19 19 17 18 18 18 18 19 19 19 19 18 18 18 18 18 17 17 16 16 17 17 17 17 17 17 17 17 17 17 17 17 17 17 18 18 18 18 18 19 20 21 20 20 20 20 19 19 20 20 20 20 20 20 20 20 20 21 21 21 21 20 20 20
18 18 18 18 18 18 18 18 19 18 18 19 19 19 17 17 17 16 16 16 16 16 18 18 18 19 19 18 19 19 19 19 18 18 18 17 17 18 18 17 16 16 16 16 16 16 17 17 17 17 17 17 17 17 17 17 17 18 18 18 18 18 19 21 21 20 20 20 20 20 20 20 20 20 20 20 19 19 20 20 21 21 20 20 20 21
18 18 19 18 18 18 18 18 19 18 18 19 19 18 17 17 17 16 15 15 15 15 17 18 18 19 19 18 18 19 18 18 18 17 17 17 16 17 17 16 16 15 15 15 15 16 16 17 17 16 16 17 17 17 17 17 17 17 17 18 18 18 19 20 21 21 20 20 20 20 20 20 20 20 20 20 20 19 19 20 20 20 20 20 20 20
17 18 19 19 18 18 18 18 18 18 18 18 18 17 16 16 17 17 15 15 16 16 17 18 18 18 18 17 17 18 17 17 17 17 16 16 16 16 16 15 15 15 14 14 15 15 16 17 17 16 16 16 16 17 17 17 17 17 17 18 17 17 18 20 21 21 21 20 20 20 20 20 20 20 20 20 20 19 19 19 20 20 19 19 20 20
17 17 18 19 18 18 18 18 18 18 18 18 17 17 16 15 16 16 16 15 15 16 17 18 18 18 17 16 16 16 16 16 16 16 16 15 15 15 15 15 14 14 14 14 14 14 15 16 17 16 15 16 16 17 17 17 17 17 17 18 18 17 18 19 21 21 21 21 20 20 20 20 20 20 20 20 21 20 19 19 19 19 19 19 19 19
17 16 17 18 18 18 18 18 17 17 17 17 17 17 17 16 16 16 16 16 16 16 16 16 17 17 16 16 15 15 15 15 14 15 15 15 15 15 15 14 14 13 13 13 13 14 14 15 16 15 15 15 16 16 17 17 17 17 17 18 18 17 17 18 20 21 21 21 20 20 20 19 19 20 20 20 20 20 20 19 19 19 19 19 19 19
17 16 17 18 18 18 17 18 17 17 17 17 16 16 16 16 16 16 16 16 16 16 15 15 16 17 16 16 15 15 15 15 14 14 14 14 15 15 14 14 13 12 12 13 13 13 13 15 15 15 15 15 15 16 16 16 17 17 17 18 18 18 17 17 19 21 22 21 21 20 20 19 20 20 20 20 19 19 20 20 19 19 19 19 19 19
17 16 16 17 18 17 17 17 17 17 17 16 16 16 15 15 15 15 15 16 17 16 16 14 15 16 16 15 16 15 15 15 15 14 14 14 14 14 14 14 13 12 12 12 12 12 13 14 14 15 14 14 15 15 16 16 16 17 17 17 18 18 18 17 18 19 21 22 21 20 20 20 20 20 21 20 19 17 18 20 20 20 19 19 19 19
16 16 16 17 18 18 17 17 17 17 17 17 16 16 15 15 15 15 15 16 16 16 16 15 15 16 16 15 16 15 15 15 15 15 14 14 14 14 14 14 13 12 12 12 12 12 13 14 14 14 14 14 14 15 15 15 15 16 16 17 18 18 18 17 17 18 20 22 22 21 20 20 20 20 20 21 20 19 19 20 20 20 20 19 18 19
15 16 16 17 18 18 17 17 16 16 16 16 16 16 15 15 15 15 15 15 15 16 16 15 15 15 15 15 16 16 16 16 15 15 15 14 14 14 14 14 13 12 12 12 12 12 13 13 13 14 14 14 14 14 14 15 15 15 16 17 17 17 18 18 17 17 18 21 22 21 21 20 20 20 20 20 21 21 20 20 20 20 20 19 18 18
15 15 16 16 17 17 16 16 15 15 16 16 16 16 15 15 15 15 15 14 14 15 15 14 16 17 16 16 16 16 16 16 15 15 15 14 14 15 15 14 13 13 12 11 12 12 12 12 13 13 13 13 13 13 14 14 14 15 16 16 17 17 17 18 18 17 17 19 21 22 21 21 20 20 20 21 21 21 20 20 19 19 19 19 19 19
16 15 15 16 16 16 16 15 15 15 15 16 16 15 15 15 15 14 14 14 15 15 14 14 15 17 17 17 17 16 16 16 15 15 15 14 14 15 14 14 13 13 12 11 11 12 11 11 12 12 12 12 12 12 13 13 14 14 15 16 16 17 17 18 18 17 16 17 19 21 21 21 21 20 20 20 21 21 21 20 19 19 20 20 19 19
16 15 15 15 15 15 15 16 16 16 15 15 15 15 15 15 15 14 14 15 15 15 15 15 15 15 16 16 16 16 15 15 15 15 15 14 14 14 14 14 13 13 13 12 12 11 11 11 11 11 11 11 11 11 12 12 13 14 14 15 16 17 17 17 17 17 17 17 17 18 19 20 20 20 20 20 20 20 20 20 20 19 20 20 19 19
15 15 15 14 13 14 15 16 16 16 15 14 15 15 15 15 15 14 14 15 15 14 15 16 15 14 15 16 16 15 15 15 14 14 14 14 14 14 14 14 14 13 13 13 12 11 10 10 10 10 10 10 10 10 11 11 12 13 13 14 15 16 17 17 17 17 17 17 16 15 16 18 19 18 18 20 20 19 20 20 20 20 20 20 20 19
15 15 15 14 13 15 15 16 16 15 15 15 15 15 15 15 15 14 14 15 14 14 15 16 15 14 15 15 15 15 14 14 14 14 15 14 14 14 14 14 13 13 13 13 12 10 10 10 10 10 10 10 9 10 10 11 11 12 12 13 15 16 17 17 17 17 17 17 16 15 16 17 17 16 17 19 20 20 20 20 20 20 20 20 20 20
15 15 15 14 14 15 15 15 15 15 15 15 15 15 15 15 15 15 15 15 15 14 14 15 14 14 15 15 15 15 15 14 15 15 15 14 14 14 14 14 13 13 13 12 11 10 9 9 10 10 9 9 9 9 10 10 10 11 11 12 14 16 16 16 17 17 18 17 16 16 15 15 16 15 15 18 20 20 20 19 20 19 19 20 19 19
15 15 15 14 14 15 15 14 14 15 15 15 15 15 15 15 15 15 15 15 14 14 15 15 14 14 16 16 15 15 15 15 15 15 15 14 13 13 13 14 13 13 13 12 11 10 10 9 9 9 9 9 8 9 9 9 9 10 10 11 12 14 15 16 16 17 18 18 17 17 15 14 15 15 14 15 18 19 20 19 19 19 19 19 19 19
14 15 16 14 14 15 16 14 14 14 14 14 15 15 15 15 15 15 15 15 14 14 14 14 13 15 16 16 15 15 15 15 15 14 14 14 13 13 13 13 13 12 12 12 11 10 9 9 8 8 8 8 8 8 8 8 9 9 9 10 11 12 14 15 16 17 18 18 19 19 16 14 15 15 15 15 17 18 19 19 18 18 18 19 19 19
15 15 16 15 14 15 16 15 14 14 14 15 15 15 16 16 15 15 15 15 15 14 14 14 14 15 15 15 15 15 15 14 14 14 14 13 13 12 13 13 13 12 12 12 11 10 9 8 8 8 7 7 8 8 8 8 8 8 8 9 10 12 13 14 15 16 17 18 19 20 18 16 15 15 15 16 16 17 18 18 17 17 17 18 18 19
15 15 15 15 14 15 16 15 14 14 14 15 16 16 17 16 15 15 15 15 15 15 14 15 15 15 15 14 14 14 14 14 14 14 14 13 13 12 13 13 13 12 12 12 11 10 9 8 7 7 7 7 7 7 7 7 8 8 8 9 10 12 13 14 14 15 16 17 18 19 19 18 16 15 14 15 15 15 15 17 17 16 17 18 19 19
15 14 15 15 14 15 16 15 13 14 14 15 15 16 16 16 15 15 15 15 15 15 15 15 15 15 15 14 14 14 14 14 14 14 14 14 13 12 12 13 13 12 12 11 11 10 9 8 7 6 6 6 6 6 6 7 7 7 8 9 10 11 12 13 14 14 15 16 16 17 18 18 17 16 15 14 15 15 15 16 17 17 18 18 19 19
15 14 15 15 14 15 15 14 13 14 15 15 15 15 14 14 15 14 14 15 16 15 15 15 14 15 15 14 15 15 14 14 15 15 15 14 13 13 12 12 12 12 12 11 11 10 9 8 7 6 5 6 6 6 6 6 6 7 8 9 9 11 12 12 13 14 14 14 14 15 16 16 17 17 15 14 15 15 15 15 16 17 18 18 18 19
15 15 15 15 15 14 14 15 15 15 16 15 15 15 14 14 14 14 13 15 16 16 15 15 15 14 14 14 14 14 14 14 15 16 15 13 13 12 12 13 13 13 12 12 11 10 9 7 7 6 5 5 5 5 5 5 6 7 8 8 9 10 11 12 12 12 12 13 13 14 14 15 16 17 17 17 17 16 15 15 16 17 17 17 18 18
15 15 15 14 14 14 14 14 14 14 15 15 14 15 15 15 15 14 13 14 16 16 15 15 14 14 14 14 14 14 14 14 15 15 14 13 13 12 12 13 14 13 13 12 11 9 8 7 7 6 5 5 5 5 5 5 5 6 8 8 9 9 10 11 11 11 11 12 12 12 13 14 14 15 17 18 18 17 16 16 16 16 16 17 18 18
14 15 15 14 14 14 13 13 13 13 14 15 15 15 15 14 14 14 13 14 15 15 15 15 14 14 14 14 13 13 13 13 14 15 14 13 13 13 12 13 13 13 12 11 10 9 8 7 7 6 6 5 5 4 4 5 5 6 7 8 8 9 9 9 10 10 10 11 11 11 12 12 13 14 15 16 18 18 18 18 17 17 16 15 17 18
13 14 14 13 14 14 13 13 14 14 15 15 15 15 15 14 14 13 13 13 14 15 15 14 14 14 14 14 13 13 13 13 13 14 13 13 13 13 12 12 12 13 12 11 10 9 8 7 7 6 6 5 4 4 4 4 5 6 6 7 7 8 8 8 8 9 9 10 11 11 12 12 12 13 14 15 16 17 18 18 19 19 18 16 16 17
13 13 13 13 13 14 14 13 14 15 16 16 15 15 14 14 13 13 13 14 14 15 15 14 14 14 14 13 13 13 14 14 13 13 13 13 13 13 12 12 12 12 12 11 9 9 8 8 7 7 7 6 5 4 4 4 4 5 5 6 6 6 6 7 7 8 8 9 10 11 12 12 12 12 13 13 15 16 17 18 18 19 19 18 18 17
14 13 13 13 13 14 15 14 14 15 16 16 15 14 14 13 13 14 14 15 15 15 15 14 14 14 13 13 13 13 13 14 13 13 13 13 12 12 12 12 12 12 12 10 10 9 8 8 8 7 7 7 6 5 4 4 4 4 4 5 5 5 5 6 6 7 8 9 9 10 11 11 11 11 12 12 13 14 16 17 18 18 19 19 19 18
15 14 14 14 14 14 14 13 13 14 15 15 14 14 13 13 15 15 15 15 15 15 15 15 14 14 13 13 13 13 13 13 13 13 13 13 12 12 12 12 12 12 11 10 10 9 8 8 8 8 8 8 7 5 4 4 3 4 4 4 4 4 4 5 5 6 7 8 8 9 9 10 10 10 11 12 12 13 15 16 17 18 19 19 19 19
15 15 15 16 16 15 14 14 14 15 15 14 15 15 14 14 16 15 15 15 15 15 15 15 14 14 13 13 13 13 13 13 13 13 13 12 12 12 12 12 11 11 10 10 9 9 8 8 8 8 8 8 8 6 5 4 3 4 4 4 4 4 4 4 5 5 6 6 7 7 8 8 9 10 10 11 12 13 14 15 16 18 19 19 19 19
15 15 15 15 16 15 15 16 16 16 15 15 15 16 15 15 16 15 15 15 15 15 15 14 14 14 13 13 13 13 13 13 13 13 12 12 12 12 12 11 11 10 10 9 9 8 8 8 8 8 8 8 8 7 5 4 3 3 3 3 3 3 4 4 4 5 5 5 6 6 6 7 7 8 9 10 11 12 14 15 16 17 18 19 19 19
15 15 14 14 15 15 16 16 16 16 16 16 15 16 16 15 15 15 15 15 15 15 15 14 14 13 13 13 13 12 13 13 12 12 12 12 12 12 12 11 11 10 9 9 8 8 7 8 8 8 8 8 8 7 6 5 4 3 3 3 3 3 3 4 4 4 4 4 5 5 5 5 6 7 8 10 11 12 13 15 16 17 18 19 19 19
15 15 14 14 14 14 15 16 16 16 16 16 15 15 15 15 15 15 15 15 15 15 14 14 13 13 13 13 12 12 12 12 12 12 12 11 11 11 11 11 10 9 9 8 7 7 7 8 8 8 8 8 8 8 7 6 5 4 3 3 3 3 3 3 4 4 4 4 4 4 4 4 4 5 7 9 10 12 13 14 16 17 18 19 19 20
14 14 13 14 14 14 14 16 17 16 15 16 15 15 16 15 15 15 15 15 15 14 14 13 13 13 13 13 12 12 12 12 12 12 11 11 11 11 11 10 10 9 8 7 7 7 7 7 8 7 7 8 8 7 7 6 5 4 3 3 3 3 3 3 3 3 4 4 3 3 3 3 4 4 5 7 9 12 13 14 16 17 17 16 17 18
12 12 13 14 14 14 15 16 16 15 15 16 16 16 16 16 15 15 14 14 14 14 13 13 13 13 12 12 12 11 11 11 11 11 11 11 11 10 10 9 9 8 8 7 6 6 7 7 7 7 7 7 7 7 7 7 6 5 4 3 3 3 3 3 3 3 3 3 2 3 3 3 4 4 5 7 9 10 10 10 12 14 14 12 12 13
11 11 13 14 13 13 15 16 15 15 15 16 16 16 15 15 15 15 14 14 14 14 13 13 13 13 13 12 11 11 11 10 11 11 10 10 10 10 9 8 8 8 7 7 6 6 7 7 7 7 7 7 7 7 7 6 6 5 4 3 3 3 3 3 2 3 3 2 2 2 2 3 4 4 5 7 9 9 7 7 9 10 10 9 9 11
12 12 14 14 13 14 15 16 16 15 15 16 16 16 15 15 15 14 14 14 14 14 13 13 13 13 13 12 12 11 10 10 11 11 10 10 10 10 9 8 7 7 7 6 6 7 7 7 7 7 7 7 7 7 7 6 6 5 4 3 3 3 3 2 2 2 2 2 2 2 2 3 5 6 6 7 9 8 6 6 6 7 7 8 8 9
Height
791 793 793 795 797 798 798 797 797 797 797 797 796 794 793 793 789 783 782 781 784 791 785 779 780 778 776 773 770 770 769 770 770 770 769 768 767 768 768 768 768 767 764 762 762 763 763 763 763 762 761 760 759 757 757 758 759 760 762 763 765 769 771 773 776 779 783 785 786 787 790 790 791 792 794 796 797 799 800 802 804 806 808 810 810 812
792 794 798 800 800 800 798 798 798 798 797 797 795 793 791 789 786 781 782 782 783 790 787 778 780 778 773 770 768 768 769 769 769 770 771 771 771 770 769 770 769 767 764 762 762 761 762 762 761 761 761 760 759 757 756 757 757 758 759 761 763 766 768 769 771 774 776 778 778 780 782 784 786 788 789 791 793 795 797 799 801 803 806 807 808 810
794 797 801 800 799 799 798 798 798 797 796 795 792 792 791 786 785 782 781 783 783 789 787 780 782 779 770 768 768 768 769 769 770 772 773 773 773 773 772 772 770 768 766 764 762 761 761 761 761 761 760 760 759 757 755 755 755 756 757 759 760 762 764 766 768 769 770 771 772 775 777 779 782 784 785 787 789 791 793 795 798 800 802 804 806 807
795 800 802 799 799 799 798 797 797 796 794 793 791 793 791 787 791 790 783 784 785 785 785 783 783 775 767 768 768 768 769 768 770 772 772 773 773 773 773 772 772 771 769 767 764 762 760 761 761 761 760 759 758 756 754 753 754 754 755 756 757 760 761 763 765 765 766 767 770 774 776 779 780 782 783 785 786 787 789 792 794 796 798 801 803 805
798 801 800 799 799 798 798 796 796 796 793 791 792 794 794 792 795 795 788 787 783 778 780 785 783 771 769 773 768 766 768 768 771 771 771 772 772 772 773 773 772 771 770 768 766 763 761 760 761 761 760 759 758 756 754 753 752 752 752 754 755 757 758 760 762 762 763 765 768 772 775 778 780 780 781 782 782 783 785 788 790 792 795 797 799 801
801 802 799 800 799 797 798 796 797 799 794 791 792 794 796 796 796 794 791 790 789 783 779 786 791 780 772 773 771 770 771 771 773 773 773 773 772 772 773 773 773 771 770 769 767 765 763 761 761 760 759 759 757 756 754 753 751 750 750 751 753 754 755 757 758 759 760 762 765 768 771 773 775 775 775 775 776 778 781 784 787 789 791 793 796 797
802 802 800 801 799 796 795 795 798 800 796 794 794 794 796 796 796 795 792 793 795 789 778 781 794 789 773 768 772 775 775 774 776 775 774 774 773 774 774 775 774 772 770 769 768 766 764 763 761 760 759 758 757 755 754 752 750 749 748 749 750 751 753 754 756 757 758 760 762 764 766 768 770 770 770 770 771 773 777 781 784 786 788 790 793 794
804 803 802 800 797 794 795 798 798 799 799 796 794 794 795 795 795 793 792 792 790 786 778 776 789 792 779 771 774 776 776 778 779 778 777 776 775 775 775 775 774 773 772 769 768 767 765 764 762 761 760 758 757 755 753 751 749 748 747 746 747 748 750 751 753 754 755 757 759 761 763 765 765 764 765 767 769 771 774 778 781 783 786 788 790 791
805 805 805 801 797 796 799 800 798 800 800 793 792 795 794 794 792 790 791 788 784 787 785 779 786 791 780 770 771 775 779 784 784 782 780 778 777 776 775 776 774 773 771 769 769 767 765 764 763 762 760 758 757 755 753 751 748 747 745 744 745 745 746 747 749 751 752 754 755 757 759 760 760 759 760 764 767 770 773 775 777 780 783 785 786 788
805 805 805 802 801 802 802 799 797 801 799 792 792 793 788 787 787 789 789 783 784 791 790 786 790 793 782 769 770 779 787 790 788 783 781 779 777 776 775 775 774 772 771 769 768 767 766 765 764 762 760 758 756 754 753 750 748 746 744 742 742 742 743 744 745 747 749 751 752 753 754 755 755 755 758 762 765 767 770 772 774 776 780 782 783 784
804 803 804 803 804 803 800 797 797 800 798 793 791 787 783 781 783 787 785 782 788 793 792 791 792 795 790 777 777 787 790 789 788 784 781 780 778 777 776 775 773 772 771 769 767 766 766 765 763 762 760 758 756 754 752 750 748 746 743 741 739 739 740 741 742 743 745 748 748 748 749 750 750 752 756 759 762 764 767 769 770 773 776 779 780 781
801 802 802 802 803 801 797 796 797 797 794 790 786 784 785 784 786 789 786 787 792 792 793 792 791 796 795 783 782 788 787 785 788 787 786 786 785 782 780 777 775 773 771 770 768 766 765 764 762 760 759 756 754 753 751 749 747 745 743 740 738 736 737 738 739 740 742 744 744 744 745 746 747 750 753 755 758 760 762 764 767 769 772 775 776 777
798 800 800 801 802 800 798 796 796 794 789 787 786 786 788 787 792 796 790 788 791 791 790 788 791 795 789 783 785 787 786 785 787 788 789 789 788 786 783 779 775 773 772 769 768 766 765 763 762 759 757 755 753 752 750 748 746 744 742 740 737 735 734 735 736 737 738 740 740 740 741 743 745 747 749 751 754 755 758 760 763 765 768 770 771 772
801 803 799 800 802 799 799 800 802 798 791 793 793 792 793 794 805 810 799 793 796 794 785 782 791 792 783 783 786 786 785 783 784 786 787 786 785 785 784 780 777 775 773 770 768 767 765 764 762 759 757 754 752 751 749 747 745 743 741 739 736 733 731 732 733 734 735 736 736 737 739 741 742 744 745 748 750 751 753 756 758 761 763 765 766 768
809 810 802 802 804 799 799 802 804 801 796 797 793 792 797 800 808 813 806 803 803 796 784 784 793 791 786 789 786 784 785 782 784 784 784 784 781 780 781 779 780 778 775 772 769 768 766 764 762 759 756 754 751 750 748 746 744 742 740 737 735 732 729 729 729 730 732 732 733 734 736 737 739 740 742 744 746 748 750 752 754 756 759 762 763 765
806 807 802 802 803 801 801 800 798 798 799 796 790 792 801 804 806 809 809 809 809 805 793 787 789 782 780 786 782 782 784 783 784 783 782 784 781 778 778 777 779 778 776 775 771 768 766 763 761 759 756 753 751 749 746 744 742 740 738 736 733 730 727 726 725 726 728 729 730 731 732 733 735 736 738 740 743 745 746 748 751 753 755 758 760 762
806 805 800 800 801 801 802 800 797 799 800 796 793 799 804 804 805 808 811 810 811 811 797 786 785 777 776 786 784 782 785 784 784 784 783 785 784 782 779 778 779 778 777 776 772 768 765 762 760 758 755 753 750 748 745 743 741 738 736 734 731 728 725 723 722 722 723 725 726 727 728 729 731 733 734 736 739 741 743 744 747 750 751 754 756 759
810 807 798 798 802 801 801 801 799 799 799 798 800 804 806 806 804 805 811 811 806 805 794 784 787 783 783 791 788 784 788 788 786 786 786 786 785 783 781 781 780 779 778 776 772 768 764 761 759 757 755 753 749 747 743 741 739 736 734 732 729 726 723 720 718 718 719 720 722 723 723 725 727 729 731 733 735 738 740 741 743 746 748 750 752 755
812 810 801 798 801 801 799 801 803 801 799 800 802 803 807 811 809 804 809 812 808 806 798 788 786 787 790 794 793 793 794 793 791 790 789 788 786 784 782 781 780 779 778 775 771 768 764 760 757 755 754 751 748 745 742 739 737 734 732 730 727 725 722 718 716 714 715 716 718 718 719 721 723 725 727 729 731 734 736 737 739 741 745 747 749 751
811 813 806 798 798 800 799 801 806 806 802 801 802 803 805 808 808 806 807 807 806 804 802 797 790 788 793 795 797 799 797 796 796 793 791 790 787 784 783 782 780 779 778 775 771 768 764 760 757 755 753 749 746 743 740 738 735 732 730 727 725 723 720 717 714 711 711 712 714 714 715 716 718 721 723 725 727 729 731 733 735 737 740 743 746 749
810 814 810 799 796 801 802 802 804 806 805 805 807 809 809 807 807 809 806 801 801 802 804 807 800 790 792 796 797 798 797 796 796 794 792 790 786 785 784 783 783 781 778 775 771 768 764 760 757 754 752 748 745 742 739 736 734 731 729 726 723 720 719 716 712 709 708 708 709 710 711 712 713 716 718 720 723 725 726 728 730 733 736 739 742 746
810 813 811 804 799 801 803 801 802 804 805 806 808 811 813 811 809 811 808 799 797 799 802 808 805 792 791 795 794 795 795 794 793 793 792 790 787 786 784 782 783 783 780 776 772 769 764 760 756 753 750 747 743 740 738 735 733 730 727 725 722 719 717 715 711 707 705 705 706 706 707 708 709 712 714 715 718 722 724 723 725 730 733 734 737 741
812 812 812 807 801 800 801 802 804 805 804 805 808 809 812 813 811 810 809 803 799 798 797 803 804 795 792 794 792 793 793 791 791 791 791 790 788 785 782 781 782 782 781 778 774 770 765 761 756 752 749 746 742 739 736 734 732 729 726 723 720 717 715 713 710 706 703 702 702 703 704 705 706 708 709 710 713 717 720 720 722 726 729 731 733 736
815 814 812 805 797 798 802 803 804 805 805 806 807 808 809 812 811 808 807 806 804 799 795 799 799 793 793 793 790 791 790 788 788 788 788 788 786 783 780 779 780 781 781 778 775 771 767 761 757 753 749 746 742 738 735 733 731 728 725 722 719 716 713 710 708 705 702 700 699 700 701 702 703 705 706 707 708 711 713 716 719 722 725 728 730 732
816 814 813 808 802 805 809 810 810 811 809 805 805 807 809 810 812 811 808 809 808 802 802 804 795 785 786 787 786 787 787 786 787 785 785 786 785 781 778 778 779 779 779 778 774 770 766 762 758 754 750 746 743 738 735 732 730 727 724 721 718 715 712 709 707 704 701 698 696 696 697 698 700 702 703 704 705 707 709 713 717 719 722 725 727 730
813 814 814 812 810 809 809 811 812 811 809 805 804 808 809 809 811 812 810 808 805 801 804 805 793 782 782 783 783 785 785 784 785 783 783 785 783 780 779 779 779 777 777 777 773 769 766 762 758 755 752 748 744 740 735 731 728 725 722 720 717 714 710 708 705 703 700 697 694 694 693 694 697 698 699 700 702 703 706 709 713 716 719 721 724 726
813 814 812 814 815 811 808 806 805 806 810 810 807 806 807 808 809 811 810 804 800 800 798 795 794 792 788 784 783 785 785 785 784 784 783 784 783 780 779 779 777 775 774 774 772 768 765 762 759 755 752 748 744 740 736 732 728 724 721 718 715 712 709 706 703 701 699 696 694 692 691 691 693 695 696 697 699 701 703 706 710 712 715 718 720 721
816 814 811 817 819 813 807 804 801 804 809 810 808 805 804 806 808 811 810 802 801 803 795 787 793 799 793 786 785 787 786 786 786 785 783 783 783 780 777 777 776 773 772 771 770 768 765 762 758 755 751 748 744 740 736 732 728 724 720 716 713 710 707 704 702 700 698 696 693 691 689 688 689 693 695 694 695 698 700 703 705 707 710 713 715 716
815 811 808 815 817 810 805 803 801 803 805 805 805 803 802 804 806 808 806 801 803 806 797 788 793 797 792 787 787 787 788 787 787 784 782 783 783 779 776 776 775 772 770 769 769 768 765 762 758 754 751 747 744 740 736 731 728 724 720 716 711 708 705 703 700 698 697 695 693 690 688 686 687 692 695 692 690 693 695 698 701 703 706 708 711 713
812 807 807 812 812 806 803 802 801 802 802 802 802 801 800 800 801 803 802 799 801 803 797 792 794 793 788 787 787 787 787 786 784 781 780 782 782 779 777 775 774 771 769 768 768 767 765 762 758 754 751 747 744 740 736 732 728 724 720 716 711 707 705 702 699 696 694 694 693 690 688 687 688 691 693 690 687 688 690 693 695 698 702 704 707 710
813 809 807 811 810 802 800 805 805 803 802 802 800 797 796 797 799 801 800 798 800 800 796 794 797 792 785 784 786 785 784 783 782 780 780 781 782 781 777 774 773 771 769 768 767 766 764 761 757 754 751 747 744 740 736 732 728 724 720 717 712 708 705 702 699 695 692 691 691 689 688 689 689 690 692 690 686 685 685 688 690 692 696 699 701 704
814 809 804 810 811 800 797 805 807 803 802 801 797 794 793 794 797 798 797 796 797 799 798 798 797 790 783 783 785 783 782 782 781 780 780 780 781 781 778 773 772 771 769 767 766 765 763 761 757 754 751 747 743 739 736 732 728 724 720 717 713 709 705 702 699 695 692 689 688 686 686 688 688 689 691 689 686 684 683 684 687 690 692 694 695 698
808 806 802 807 810 799 794 802 805 804 803 796 789 787 786 788 792 793 793 792 792 795 798 796 791 785 784 786 785 783 782 781 780 780 780 780 780 780 777 773 772 771 768 767 766 764 763 761 758 754 751 747 743 739 736 732 728 724 721 717 713 709 705 702 699 696 692 689 686 684 684 685 685 687 687 686 684 684 683 682 684 687 689 690 690 692
805 806 803 805 809 800 793 799 804 803 800 792 784 781 780 784 790 791 790 789 788 789 791 789 785 784 786 786 785 785 784 782 781 780 779 780 780 779 777 773 772 770 768 767 766 764 762 760 758 754 750 747 743 739 735 732 728 724 721 717 713 708 705 702 699 696 693 689 686 684 683 683 682 681 681 681 680 682 683 683 683 685 687 686 685 687
806 807 803 804 809 800 793 801 807 802 795 789 784 782 782 785 787 789 789 787 786 786 786 786 786 785 785 785 784 784 782 781 780 778 777 778 778 778 776 773 771 770 768 766 765 763 761 759 756 753 749 746 743 739 735 731 728 724 720 716 712 708 705 703 700 696 693 690 688 685 684 684 683 680 679 679 680 681 682 684 683 681 681 680 679 681
803 805 802 801 803 800 797 803 805 795 786 786 786 786 788 789 789 792 791 785 782 783 784 785 786 784 784 785 783 781 780 779 776 773 775 777 777 777 777 773 770 769 767 766 764 762 761 759 756 752 749 746 743 739 735 732 728 724 719 715 712 708 705 703 700 697 695 692 690 688 686 685 685 683 682 682 682 681 680 681 680 677 674 674 676 678
799 800 801 800 800 801 800 796 792 787 782 784 787 786 787 788 788 791 792 784 778 780 783 784 784 784 784 783 781 780 780 778 772 769 772 776 776 777 776 773 770 768 767 766 765 763 762 759 755 752 749 746 743 740 736 732 728 724 719 715 712 709 706 703 701 699 697 694 692 690 688 687 685 684 684 682 681 679 678 678 678 675 672 672 673 675
798 797 800 802 799 800 802 798 795 793 787 784 785 784 783 785 785 788 791 785 776 777 781 783 783 783 783 782 782 781 779 776 770 766 770 775 776 776 775 772 769 768 767 766 765 763 761 758 755 752 748 745 742 739 736 733 729 725 721 716 713 709 707 704 702 700 697 695 693 691 689 688 686 685 683 681 679 678 677 676 676 675 673 672 671 671
798 797 798 802 799 798 802 802 799 796 789 783 783 783 783 786 787 788 790 785 778 777 780 781 782 782 782 782 782 781 779 777 771 767 772 776 775 775 775 772 769 768 766 766 765 762 760 757 754 751 747 744 740 737 735 732 729 725 722 718 715 711 707 705 703 701 698 695 693 691 689 688 687 686 684 682 679 677 676 675 674 673 673 674 673 671
802 800 801 804 800 796 799 799 792 787 783 780 782 784 784 785 788 790 789 785 781 779 778 780 782 781 781 781 781 780 779 777 775 773 775 776 774 774 774 772 770 767 766 765 765 762 759 756 753 750 747 743 740 736 734 731 728 725 722 719 716 713 710 706 703 701 699 695 693 690 689 688 687 685 684 683 680 677 675 674 673 672 672 673 674 673
802 803 802 802 798 793 795 795 789 783 777 775 779 783 785 787 790 790 785 781 779 777 776 779 781 780 780 781 781 780 778 776 777 777 776 775 774 773 773 772 770 768 766 766 764 762 759 755 752 750 747 743 739 736 733 730 727 724 722 719 716 714 712 709 705 701 699 696 693 690 688 687 686 684 683 682 680 678 676 674 672 671 671 671 671 672
795 798 799 800 798 791 787 789 788 780 773 773 777 782 786 788 786 782 778 776 777 776 776 778 779 779 780 780 780 781 778 776 777 776 774 774 774 773 772 772 770 767 766 765 764 761 759 755 752 750 747 743 740 736 733 730 726 723 720 717 715 713 711 709 706 702 699 696 693 690 688 686 684 683 681 680 679 677 675 673 671 670 670 669 668 668
785 789 790 790 790 789 787 790 791 782 772 774 779 783 787 785 777 774 775 774 774 775 775 776 777 778 780 779 779 780 779 777 776 775 774 773 773 773 772 771 770 768 766 764 763 761 759 756 752 750 747 744 740 737 734 731 727 723 720 716 714 712 709 707 704 701 699 696 693 690 688 685 683 681 679 678 677 675 674 672 670 669 668 668 667 666
782 783 782 777 777 782 784 783 780 773 770 773 775 776 780 778 771 772 775 773 772 774 775 775 776 777 779 779 779 779 778 777 775 774 774 774 773 772 772 771 771 769 767 766 764 762 760 757 753 750 747 744 741 738 735 732 728 725 721 717 713 710 707 704 702 699 696 694 691 689 687 685 682 680 678 676 675 673 671 670 669 667 666 666 665 665
782 779 781 777 774 775 774 769 766 766 769 772 770 768 771 772 771 773 775 773 772 773 773 775 776 776 778 779 778 778 776 775 775 774 774 774 773 772 772 772 772 770 768 767 765 763 761 758 753 750 747 744 741 738 735 733 729 725 721 717 714 711 707 703 700 697 694 692 689 687 685 683 681 678 676 674 673 671 669 667 666 665 664 663 664 663
779 778 783 782 777 773 770 766 765 767 767 768 768 768 769 770 771 772 773 772 772 772 773 775 775 776 777 778 778 777 776 774 774 774 774 774 773 772 772 772 772 771 770 768 766 764 761 758 754 751 747 744 741 738 736 733 730 726 722 718 715 712 708 705 701 696 693 690 687 685 682 680 677 675 673 671 669 668 666 665 663 662 661 661 661 662
777 778 782 781 779 777 772 764 763 766 765 766 767 768 768 769 770 770 771 771 771 771 773 774 775 776 777 777 777 776 776 775 774 773 773 773 772 771 772 772 772 771 770 769 767 765 762 758 755 751 747 744 741 738 736 733 731 728 724 720 716 713 710 706 702 698 694 690 686 683 680 677 674 672 670 668 666 663 662 661 660 659 659 658 658 659
779 782 781 777 774 773 769 762 761 764 765 765 766 765 765 767 767 768 769 770 770 771 772 774 775 776 775 775 776 776 776 775 774 773 773 773 772 772 772 772 772 771 771 769 768 765 762 759 756 753 749 745 742 739 737 734 731 729 725 721 718 715 711 708 704 700 696 692 688 683 679 675 671 668 666 665 663 660 658 656 656 656 657 657 657 657
784 786 781 774 771 769 766 762 761 764 763 761 760 762 762 764 765 767 768 769 770 771 772 773 775 775 775 776 776 776 776 775 774 774 774 773 772 772 773 773 773 771 770 769 768 765 763 760 757 754 751 747 744 740 737 734 732 730 726 722 719 717 713 710 706 702 698 694 688 682 676 670 665 662 661 660 658 657 655 653 653 654 656 657 657 658
786 784 775 773 773 770 764 760 761 764 763 758 757 760 762 763 764 765 767 768 769 770 770 772 773 774 775 776 776 776 776 775 774 774 774 773 772 772 773 774 773 771 770 770 768 765 763 760 758 755 752 749 745 741 738 735 733 730 727 724 721 718 715 711 707 703 699 694 688 680 672 662 653 650 653 654 653 653 653 653 653 655 656 658 658 658
779 774 769 769 769 764 759 757 758 761 761 757 756 759 761 762 763 764 765 767 767 768 769 771 771 772 772 773 775 776 776 775 775 774 774 773 773 772 774 774 773 772 771 769 767 765 763 760 758 755 753 750 746 742 738 735 733 731 728 725 722 720 717 713 709 704 700 694 688 680 671 659 647 644 647 649 648 648 651 654 657 658 659 659 659 660
Wind_Speed
3 4 2 1 3 4 4 3 3 3 3 5 6 6 6 7 6 5 5 2 2 8 9 9 10 10 10 9 9 8 8 8 7 6 5 4 4 5 7 7 7 8 8 10 11 11 9 7 6 7 10 10 11 15 17 19 22 25 27 26 26 27 30 30 30 31 32 30 29 27 25 26 24 23 22 21 21 20 19 19 19 21 21 21 22 23
4 3 2 4 4 4 4 2 3 4 5 6 7 7 7 7 6 5 6 3 2 5 8 10 11 11 11 10 8 6 5 4 3 4 4 5 6 6 7 7 8 8 7 10 11 11 11 9 8 7 9 11 10 13 16 18 21 24 27 28 29 29 31 32 32 32 32 31 30 28 28 27 24 23 23 22 22 21 20 20 21 21 22 22 22 23
4 1 5 4 3 3 4 3 5 7 7 7 6 7 7 5 5 6 5 2 3 4 7 10 10 11 10 7 4 1 1 1 2 3 4 5 6 6 7 8 8 9 9 10 12 13 13 12 10 9 9 11 11 11 15 18 20 23 26 28 31 33 31 32 33 31 31 32 32 28 27 27 24 23 24 23 22 22 22 22 22 23 23 23 23 23
0 4 5 4 3 5 5 4 6 7 6 6 5 6 6 4 6 5 2 2 7 8 8 9 9 9 4 1 2 3 1 1 3 3 4 5 6 7 8 8 9 10 10 11 12 13 15 14 12 11 11 11 11 11 12 16 19 21 24 27 31 33 31 31 31 31 33 34 31 26 24 24 22 21 22 22 21 22 23 24 24 25 25 25 24 24
4 6 5 4 3 5 5 4 4 6 5 4 5 5 6 5 6 6 5 8 11 9 7 7 9 4 3 1 1 3 2 3 4 5 6 6 7 8 8 9 10 10 10 11 12 13 14 15 14 13 12 11 10 11 11 14 17 20 22 25 29 31 30 30 31 33 37 35 29 25 22 21 21 20 22 23 23 24 25 25 26 26 26 26 25 24
5 5 4 3 1 2 5 3 3 5 6 4 2 2 5 6 6 8 9 9 9 4 5 2 8 1 4 3 0 3 1 3 6 6 7 8 9 9 9 10 11 10 10 10 11 12 13 15 15 14 13 11 11 11 12 15 16 19 21 23 26 29 30 32 33 36 40 38 32 27 24 24 24 24 25 26 26 25 26 26 25 25 26 26 26 25
4 3 1 1 1 2 3 0 3 4 7 3 2 2 4 7 8 9 10 8 6 4 0 3 6 2 3 3 5 4 1 4 7 8 9 10 10 11 10 10 11 11 11 11 11 12 13 15 15 15 14 13 12 12 13 16 17 19 21 22 25 27 29 31 32 34 37 36 33 29 27 29 28 26 26 26 25 24 24 24 23 24 26 26 27 26
3 2 1 2 3 2 3 2 3 5 7 3 4 4 6 8 10 10 10 8 5 7 7 3 2 5 5 3 7 2 1 5 8 9 10 11 12 13 12 12 13 12 12 11 11 12 13 14 15 16 16 15 13 13 13 15 16 18 20 22 24 26 28 29 29 30 32 31 33 32 29 30 31 27 24 22 21 22 22 22 22 22 24 26 27 27
1 2 3 4 4 3 4 5 5 5 6 3 5 8 9 10 12 10 9 8 4 5 5 3 1 6 3 5 7 3 4 7 9 10 11 12 13 14 13 13 14 13 12 11 11 12 13 15 16 17 16 16 15 14 13 14 15 16 18 21 24 27 28 29 28 29 31 31 33 34 32 32 31 27 22 19 19 21 22 23 23 22 23 25 27 27
1 3 3 5 5 5 6 6 4 5 6 6 7 10 10 10 9 8 8 5 3 4 2 5 3 5 2 2 3 5 6 7 8 9 10 13 15 15 15 14 14 13 12 11 12 12 13 16 17 17 17 16 16 14 14 15 15 15 17 19 23 27 28 30 28 28 32 32 32 34 34 31 28 26 23 19 20 22 23 23 23 23 23 24 26 27
4 2 2 2 5 6 7 5 2 4 7 7 8 9 7 6 4 4 4 3 4 4 3 4 3 4 2 2 4 5 5 7 8 9 12 15 17 17 16 15 15 13 11 12 12 12 15 17 17 17 17 17 16 15 15 15 15 15 15 18 22 26 28 30 30 30 33 34 34 35 34 30 29 27 24 23 23 23 24 24 25 24 24 23 23 25
5 4 2 2 3 7 7 2 3 4 7 7 6 6 5 3 2 3 4 3 5 2 4 2 1 4 4 2 6 6 7 9 10 11 13 16 16 16 15 15 14 13 12 12 12 12 14 16 17 19 19 18 18 17 17 16 16 15 15 17 20 24 27 30 31 31 34 34 34 36 34 32 32 29 26 27 27 27 27 27 26 25 25 25 24 24
5 3 2 3 1 6 8 3 2 4 4 4 5 5 4 1 1 3 3 2 2 2 3 1 2 4 3 3 6 7 8 9 8 10 12 14 15 15 15 15 13 12 13 13 12 12 12 13 15 18 19 19 18 17 19 18 16 15 16 17 19 22 26 30 32 33 34 34 35 37 35 34 35 33 30 30 30 31 30 28 26 26 27 27 26 26
3 3 2 2 2 3 7 5 2 1 3 5 5 5 4 3 2 2 1 1 1 2 1 1 2 3 1 4 6 8 9 10 9 11 12 13 15 15 15 15 14 13 14 13 12 12 12 12 15 18 18 18 18 19 20 19 17 16 16 17 19 21 24 29 33 33 33 34 36 37 36 35 36 36 34 33 32 31 30 28 26 27 28 27 26 25
1 2 3 4 2 4 4 4 5 5 4 4 5 5 4 4 3 3 3 3 3 3 1 0 2 3 2 4 5 7 9 11 11 11 12 13 14 15 14 14 14 15 15 13 13 13 13 14 17 18 18 19 19 20 20 19 18 17 17 18 19 21 23 27 33 34 33 34 36 38 38 37 37 36 35 34 32 31 31 29 26 26 27 25 22 22
3 1 5 4 2 4 3 3 6 7 3 2 3 3 3 3 3 3 3 4 5 5 1 0 2 2 3 5 5 8 10 12 13 14 15 16 16 17 16 15 15 15 15 15 14 14 15 16 17 18 19 19 20 20 20 20 20 19 18 19 20 21 22 25 31 35 34 33 35 38 39 40 39 37 35 32 31 33 33 30 26 25 26 24 20 19
3 1 5 3 1 2 3 3 6 7 4 2 3 3 4 2 3 3 2 3 5 4 0 1 1 1 4 5 4 11 12 13 15 16 17 17 18 18 17 16 17 17 17 16 15 15 16 17 18 20 20 21 21 21 21 21 20 20 19 18 20 21 21 24 29 34 36 33 33 36 37 40 41 38 36 33 31 32 33 31 27 24 25 24 21 17
4 2 4 2 1 4 0 2 3 6 7 4 2 4 2 2 2 2 1 2 3 3 1 2 2 3 2 2 5 13 15 15 17 17 17 17 17 17 17 17 18 18 19 18 17 17 16 17 19 21 21 22 22 22 22 21 20 19 19 18 19 21 21 23 27 31 35 34 32 32 34 38 39 37 36 34 29 27 29 32 29 24 24 24 21 18
3 4 4 3 3 3 4 4 1 3 6 4 3 2 1 2 1 0 1 2 3 3 2 2 3 3 4 5 8 12 15 16 17 17 17 17 17 17 18 19 20 20 19 18 17 17 16 18 21 23 24 24 23 22 21 20 20 20 20 18 17 19 21 22 25 29 32 33 32 32 34 35 35 35 36 33 29 25 26 31 32 27 25 23 22 21
2 4 2 3 1 2 4 3 1 2 3 2 2 1 1 1 2 1 1 1 2 4 3 4 5 2 3 6 8 10 12 14 15 15 15 16 16 16 17 18 19 20 19 18 18 17 17 20 23 24 25 25 24 22 20 20 20 20 20 19 18 19 21 21 23 27 30 32 32 32 32 32 31 33 36 34 31 27 25 27 31 31 28 25 24 24
2 3 2 1 3 3 2 0 3 3 2 0 1 1 1 1 1 1 1 1 3 4 3 4 7 3 3 4 7 9 11 12 13 14 14 14 15 16 17 17 18 18 19 19 19 19 19 21 25 25 24 24 23 21 20 19 19 20 19 19 19 19 19 20 21 25 28 30 32 32 31 30 31 32 35 36 34 32 28 25 26 29 30 25 23 24
2 3 4 3 2 2 1 3 3 4 4 3 2 1 1 1 3 3 2 1 2 4 4 5 7 3 3 2 6 8 10 11 13 14 13 13 15 16 16 17 17 17 18 19 20 19 19 21 25 26 24 24 23 22 21 20 19 19 20 19 19 18 18 20 21 22 26 28 30 33 32 30 31 32 33 33 35 36 33 27 24 26 29 28 26 26
2 3 5 5 3 2 3 5 3 2 2 2 1 0 1 2 4 4 3 2 3 4 3 4 5 1 3 2 6 7 9 11 12 12 12 12 13 14 16 17 16 16 17 19 19 18 19 23 26 25 24 24 24 23 21 20 19 19 20 20 18 18 19 19 20 20 22 26 28 31 32 31 33 34 31 30 33 35 31 28 27 27 29 31 31 30
1 3 5 6 3 2 5 6 4 1 1 2 1 1 1 2 4 5 5 4 4 4 3 4 5 0 2 1 4 6 9 11 11 12 13 12 12 14 16 16 15 15 17 18 17 16 19 24 24 23 23 23 23 23 22 21 20 20 20 20 18 18 19 19 19 20 19 23 28 29 31 32 33 34 33 31 31 30 28 30 31 29 28 31 34 34
2 3 3 5 5 3 4 4 4 2 3 2 1 1 2 3 5 6 5 4 5 3 1 5 6 2 3 3 5 7 10 11 11 12 13 12 12 14 14 15 16 16 16 17 18 18 19 21 20 20 23 23 23 24 23 22 22 21 20 19 18 18 18 18 18 18 18 20 26 28 29 32 33 33 33 32 31 30 29 32 33 30 28 30 33 34
3 3 3 5 6 4 4 3 1 1 2 2 2 3 3 4 6 6 5 6 5 2 3 6 7 6 7 8 8 9 11 12 13 13 13 12 12 14 14 14 15 16 15 16 18 19 18 18 19 21 23 23 23 23 24 23 23 22 21 20 19 18 16 16 17 17 18 18 22 25 25 28 30 32 33 32 32 30 29 32 33 30 29 30 32 33
3 3 4 5 7 7 8 7 4 3 4 4 4 5 5 4 5 5 6 6 5 5 5 5 6 9 11 11 11 12 12 13 13 14 13 12 12 14 15 14 15 15 15 15 16 18 18 18 19 21 23 24 24 23 23 24 23 23 22 21 20 18 16 15 16 17 18 17 17 20 21 23 26 30 33 32 31 30 29 30 32 31 31 31 31 33
3 4 4 4 6 9 11 10 7 6 6 7 7 7 6 5 5 6 8 6 6 6 6 4 5 10 12 11 11 12 13 13 13 13 13 12 12 14 15 16 16 17 16 16 17 18 18 19 19 20 23 25 24 24 24 23 23 23 23 22 20 18 16 15 15 16 17 16 16 18 20 23 25 29 33 31 29 30 31 32 33 33 35 35 33 33
4 6 3 3 7 10 11 11 9 7 8 8 8 8 8 8 7 8 10 9 6 7 9 9 10 12 11 11 11 11 12 12 12 13 12 11 12 14 17 17 17 18 18 19 19 17 17 18 18 19 23 25 24 24 24 23 22 22 23 23 21 18 17 16 15 16 16 15 16 21 23 21 20 26 32 31 30 32 34 34 34 34 35 35 33 31
5 4 2 4 9 11 9 8 8 8 8 8 9 10 10 11 10 9 9 9 9 10 13 13 14 13 10 8 9 10 10 10 11 12 12 11 12 15 17 17 17 18 19 19 18 17 17 18 18 19 23 25 25 24 23 22 23 23 23 23 21 18 18 18 17 17 16 15 15 20 23 23 22 26 30 28 27 31 33 34 34 32 32 34 34 32
3 2 1 4 9 9 5 3 4 7 8 9 11 11 11 12 11 10 9 8 9 11 13 13 14 12 6 5 8 10 10 10 11 12 12 11 12 14 16 17 18 18 19 19 18 17 17 18 18 20 22 24 25 24 23 22 23 23 22 22 22 20 19 18 18 18 17 16 15 13 16 21 24 27 29 29 27 27 28 31 33 33 33 34 34 32
4 4 4 5 7 7 2 2 5 7 9 13 14 13 14 13 11 9 8 7 8 9 11 10 10 8 5 7 10 11 11 12 13 13 13 11 11 14 16 17 18 18 19 19 19 18 18 18 18 20 22 24 25 25 24 23 23 23 22 22 22 21 20 18 18 18 18 17 16 10 9 16 21 24 26 28 27 26 26 27 30 32 34 36 36 34
6 6 6 5 6 7 3 2 5 7 9 10 8 9 12 12 10 9 8 8 8 8 8 8 7 7 7 9 11 12 13 14 13 12 11 11 11 13 15 17 18 18 18 19 18 18 17 16 17 21 24 24 23 24 24 23 22 22 22 22 22 20 19 18 17 17 18 17 16 13 6 11 17 19 21 23 24 24 25 26 28 30 33 35 35 33
8 8 7 5 5 7 6 5 7 9 8 4 2 1 5 8 9 10 8 8 7 7 8 8 8 8 8 9 11 13 13 13 13 12 9 8 10 12 14 16 16 17 18 18 18 18 16 16 19 23 24 23 23 23 23 22 21 22 22 21 20 18 17 17 17 17 18 17 17 16 10 6 12 15 17 18 19 21 26 27 26 30 35 33 31 31
8 7 6 4 5 7 7 6 7 7 3 1 2 2 2 2 5 7 9 10 9 9 10 10 9 9 9 9 11 12 12 12 13 10 7 8 10 11 14 15 16 17 18 18 18 18 17 18 21 23 23 23 24 24 23 22 22 22 22 20 19 17 16 16 17 17 17 17 18 18 16 10 8 13 16 17 17 19 24 27 25 26 28 27 26 29
8 6 6 5 6 6 6 6 6 5 3 4 5 2 3 2 3 5 8 10 9 9 9 9 9 8 9 10 10 10 11 13 12 6 4 9 12 12 13 14 15 16 17 17 18 19 19 21 23 23 24 23 23 23 22 22 22 22 21 19 17 16 16 16 16 16 16 17 18 18 19 17 11 9 13 18 20 19 20 25 27 25 23 23 25 27
9 7 6 6 5 5 7 8 7 9 8 5 5 4 4 4 3 3 6 8 6 6 6 6 8 8 9 10 10 11 11 12 9 3 6 10 12 12 13 15 15 16 17 18 19 18 19 21 23 24 24 24 23 22 22 22 21 20 19 18 17 16 15 14 15 15 17 18 18 18 18 18 17 14 11 13 16 16 19 24 27 25 22 22 24 26
9 8 6 5 4 4 7 8 7 10 8 1 3 3 4 2 1 1 6 7 4 6 5 5 7 8 9 9 10 11 11 10 8 4 8 12 13 12 14 16 17 18 19 19 19 19 20 21 22 23 24 25 24 23 23 23 21 19 17 16 17 17 15 14 15 16 18 19 19 19 18 17 17 16 16 15 13 13 16 21 24 24 23 22 22 22
9 7 5 6 6 6 7 8 7 8 5 1 4 4 5 3 2 2 5 4 2 5 4 4 7 8 8 9 9 10 9 8 8 7 9 13 14 13 13 15 17 19 20 19 18 18 20 20 20 21 24 25 26 26 25 24 21 18 16 15 16 17 16 16 16 16 18 19 20 20 18 17 16 16 16 17 16 14 13 15 18 19 20 23 24 21
8 5 5 8 8 8 8 8 7 7 5 2 3 4 4 4 4 4 6 2 3 3 2 3 6 7 7 9 9 8 8 8 8 9 11 13 13 13 14 15 17 19 19 18 17 18 19 19 18 20 24 25 25 26 25 23 21 18 17 16 15 16 17 18 19 18 18 18 19 19 18 17 16 16 16 16 16 17 15 13 14 14 15 19 22 22
6 5 6 8 9 9 9 9 8 7 6 5 5 5 5 5 5 6 5 1 1 3 2 3 6 7 7 8 8 6 7 8 9 11 12 13 13 13 15 17 19 19 18 16 16 18 19 19 18 19 22 23 23 25 25 23 21 20 18 17 17 17 17 19 20 20 19 18 18 19 19 18 17 16 17 17 16 17 16 15 14 14 13 15 17 19
6 5 6 8 8 9 9 9 9 8 3 4 7 6 6 4 4 3 2 1 2 3 2 3 6 6 6 8 7 7 9 10 11 11 12 12 13 13 14 17 19 19 18 16 16 18 19 19 19 19 21 23 23 24 24 23 23 22 21 20 20 20 20 19 19 19 19 19 19 18 19 19 19 18 17 16 16 16 17 16 16 15 14 13 13 15
5 5 6 6 7 8 7 8 9 8 1 10 10 7 6 6 4 4 3 3 3 3 4 4 4 5 6 8 7 8 10 11 11 11 11 12 13 13 14 16 17 18 19 17 17 19 19 19 19 19 21 23 24 22 22 23 24 24 24 24 24 23 22 21 21 20 18 18 18 18 18 19 20 19 18 16 16 17 17 17 16 16 16 15 14 14
6 7 8 6 5 6 7 7 5 3 4 12 10 4 4 7 5 6 6 4 3 3 5 4 4 5 6 7 8 9 10 10 10 11 11 12 12 13 14 16 17 18 18 16 16 18 18 18 19 20 20 22 23 21 19 21 23 24 25 25 26 25 25 24 24 22 20 19 18 18 19 19 19 19 19 18 17 17 18 18 17 17 17 16 15 15
4 5 5 5 5 6 8 8 5 2 5 11 8 5 5 6 7 6 6 6 4 4 4 4 5 5 6 7 9 9 9 10 10 10 11 11 12 13 14 15 16 16 16 15 15 17 18 18 19 20 20 21 23 20 18 19 22 24 25 25 26 26 26 28 28 26 23 21 21 21 21 20 20 20 20 19 18 18 17 17 17 17 17 17 16 15
5 5 4 4 6 8 10 11 9 7 8 10 9 8 7 7 6 6 6 6 5 4 4 4 5 5 6 8 8 8 9 10 10 10 11 11 11 12 13 14 15 15 15 15 16 17 17 17 18 20 21 22 22 20 18 19 20 21 24 25 25 26 26 28 29 28 27 26 25 25 24 23 21 20 20 20 19 18 18 17 16 16 16 17 16 16
8 8 7 8 9 9 8 8 8 9 9 9 8 8 8 8 7 6 6 6 5 5 5 4 4 5 6 7 8 9 10 10 10 10 10 10 11 12 12 14 14 13 13 14 16 17 17 16 17 20 21 22 22 21 20 20 20 21 24 25 24 25 26 27 27 28 29 30 30 29 27 25 23 21 20 20 19 18 18 17 17 17 17 16 17 17
4 3 6 10 11 11 11 11 10 9 8 9 9 8 7 8 8 7 7 6 5 5 4 3 3 4 6 7 8 9 9 9 9 10 9 10 10 10 11 13 14 13 12 13 15 16 16 16 17 19 20 21 22 21 20 20 20 21 24 24 23 24 26 27 27 27 28 29 30 30 28 27 26 23 20 19 19 18 16 14 15 15 12 7 7 9
1 2 7 11 11 12 13 14 13 12 12 13 12 10 7 6 6 6 7 7 6 6 5 4 3 4 5 6 7 7 8 8 8 9 10 9 9 10 11 12 13 12 12 13 14 15 15 15 16 18 19 20 21 21 21 20 20 21 23 23 22 23 26 27 27 27 28 30 31 31 30 30 30 25 20 20 20 13 4 3 6 5 1 6 4 1
3 8 11 10 10 10 10 10 9 9 10 9 7 6 5 5 6 6 7 7 6 6 5 4 4 5 5 6 6 6 7 7 7 8 9 9 9 10 11 11 11 12 12 13 13 14 15 15 16 17 18 19 20 21 21 20 20 21 22 23 22 22 24 26 27 27 28 30 32 33 35 38 32 21 17 20 18 10 13 13 8 6 11 13 10 6
9 12 10 8 10 11 11 11 9 8 9 9 7 6 5 5 6 7 7 7 6 5 5 5 5 5 5 5 5 5 6 6 7 9 9 8 9 10 10 9 10 11 12 12 13 14 15 16 16 16 17 18 19 20 21 21 21 21 22 23 23 22 23 25 26 27 28 31 33 33 37 40 26 6 17 21 16 16 23 22 22 22 20 18 16 14
Wind_Direction
264 249 225 338 5 358 353 351 332 334 303 289 281 274 277 279 275 273 288 347 345 292 288 286 289 289 291 292 290 294 291 281 279 282 283 285 293 297 297 303 301 294 294 302 309 314 323 325 324 340 345 326 282 250 237 231 225 221 218 207 200 204 201 195 191 190 193 197 198 200 203 206 207 209 212 214 216 215 215 213 213 214 214 210 207 204
240 253 62 24 358 339 320 309 285 274 264 267 272 274 271 270 278 281 286 306 286 281 290 291 292 291 291 293 292 295 285 275 303 317 317 322 322 318 316 321 316 305 302 300 304 311 318 326 329 339 349 342 313 268 246 236 230 225 222 213 204 204 202 197 194 193 194 197 197 198 202 204 205 206 206 210 212 213 214 214 214 214 214 212 209 206
216 104 54 16 339 299 272 264 263 261 263 263 264 274 274 289 312 284 252 257 286 284 295 300 302 293 289 296 298 320 297 295 9 348 339 342 338 337 336 337 330 321 316 310 310 312 316 326 331 336 341 340 327 291 258 243 236 230 224 218 210 207 206 201 199 196 196 199 198 198 201 201 204 207 207 208 210 211 211 212 213 214 213 212 210 207
189 76 33 347 311 283 257 242 259 259 257 262 271 279 281 321 327 290 227 319 305 286 285 299 296 277 267 190 158 123 62 67 70 25 14 10 356 354 347 343 338 331 326 320 316 315 319 326 333 336 335 332 326 308 276 250 241 235 229 223 216 212 211 207 202 199 199 200 199 201 204 203 206 209 208 209 210 210 210 211 213 213 213 211 211 209
54 48 357 319 281 284 267 246 271 275 268 263 273 289 304 322 315 304 310 311 301 271 245 288 292 251 138 166 188 114 108 97 64 17 15 18 7 5 359 353 348 340 335 329 323 322 323 327 334 337 333 328 321 314 296 268 249 239 233 227 220 214 211 208 205 205 203 200 198 201 202 201 205 206 204 206 209 209 209 212 213 212 211 211 210 209
54 26 334 305 268 290 268 264 345 312 295 275 240 300 321 312 297 294 296 298 298 259 157 318 303 183 138 245 239 77 91 78 43 10 11 15 12 10 6 2 355 347 345 339 331 329 329 331 336 338 338 333 323 315 307 291 267 249 238 231 223 213 209 207 206 208 205 201 198 197 196 198 200 201 202 204 204 205 207 212 215 212 211 210 210 207
53 44 359 329 285 275 265 285 35 316 295 303 84 47 300 290 283 283 291 290 290 297 275 300 299 287 237 216 100 59 331 56 25 8 13 9 7 6 4 1 355 352 349 344 340 339 338 338 340 342 342 337 327 321 312 301 285 263 245 234 226 214 210 210 208 207 204 202 202 199 198 201 201 203 207 207 203 201 203 209 213 212 211 211 210 208
46 69 77 334 288 303 335 355 14 320 293 334 43 342 288 278 278 278 286 280 281 299 280 246 274 282 270 127 96 51 326 39 13 3 7 2 360 358 357 355 350 350 348 344 344 340 339 340 340 341 340 337 333 328 319 309 297 276 255 240 229 220 214 211 209 208 204 202 205 203 202 205 205 206 209 210 206 202 202 206 210 210 210 210 210 208
22 13 31 344 332 12 1 336 339 300 280 341 3 314 289 276 280 282 279 268 268 283 258 134 84 275 251 123 113 87 23 17 3 357 356 352 351 349 350 349 345 344 342 343 344 338 338 337 336 336 335 335 336 334 328 319 308 289 267 248 234 225 218 211 208 207 205 206 207 206 205 207 207 206 207 209 208 206 205 206 206 207 210 209 209 208
108 36 7 332 355 17 350 332 323 280 287 332 321 294 279 265 269 271 266 262 240 247 242 79 27 295 282 128 112 60 24 3 351 348 349 346 343 342 343 342 340 340 337 338 341 337 337 334 331 332 330 332 337 336 332 325 317 303 278 257 240 230 222 214 209 206 207 209 210 210 208 208 209 207 206 209 206 204 205 206 204 204 208 208 206 207
125 142 236 330 17 354 332 327 301 275 289 296 288 289 282 258 254 254 252 257 232 204 100 67 24 308 291 97 71 42 17 1 347 342 347 345 340 338 337 335 335 337 335 333 335 336 335 332 329 330 329 332 335 333 335 332 325 314 290 268 249 236 227 219 211 205 209 212 214 215 213 210 210 207 206 209 208 203 203 207 206 203 206 208 204 203
151 164 180 91 23 336 323 301 182 233 264 278 292 311 297 241 204 222 201 213 241 161 86 57 345 279 257 90 57 39 21 4 351 342 341 340 338 335 331 331 332 333 334 331 331 334 334 332 330 331 330 332 334 331 333 334 329 322 305 284 262 243 231 223 214 207 208 213 216 218 217 215 213 208 205 208 208 206 204 207 207 205 206 207 203 201
159 110 78 146 156 340 333 323 164 205 265 321 332 323 305 257 191 225 197 199 258 81 83 329 313 266 239 82 45 26 10 354 347 339 336 335 337 337 333 330 331 333 333 331 331 333 333 332 330 329 329 331 332 329 328 329 330 326 316 300 278 255 236 224 217 211 210 214 218 219 219 218 216 212 209 210 210 207 206 207 205 206 208 207 204 202
147 122 80 159 158 357 344 351 15 338 347 3 352 337 340 356 347 300 297 343 7 75 75 355 309 273 202 83 49 21 2 354 351 342 340 337 338 342 338 335 336 336 333 331 332 332 332 332 328 326 328 328 328 327 325 324 326 327 321 311 293 270 246 228 219 215 215 217 219 219 219 220 218 215 213 215 215 209 205 205 205 206 209 207 204 203
278 155 63 30 17 351 358 15 354 329 339 11 354 339 5 14 345 329 340 352 343 323 314 184 274 307 6 74 55 23 3 358 356 349 347 342 340 344 340 338 339 337 335 333 331 330 330 329 328 327 327 326 325 325 324 321 321 323 321 316 304 284 261 236 221 215 216 221 222 221 220 220 220 218 216 216 216 211 204 202 205 208 209 206 203 204
286 116 80 60 16 352 2 25 347 320 312 21 341 322 22 23 333 319 328 335 326 309 305 166 274 341 62 95 53 8 360 0 358 355 353 350 347 343 338 339 338 335 336 335 330 329 328 328 329 329 327 325 325 324 322 320 318 317 317 317 310 294 272 246 225 215 215 220 225 224 222 222 223 221 219 216 214 212 207 202 202 206 207 203 202 205
294 110 111 130 136 47 4 7 10 349 328 313 317 4 42 8 300 311 290 270 287 279 252 356 300 67 104 112 22 356 359 1 358 356 354 352 347 341 340 340 336 336 336 334 330 328 327 327 329 329 327 325 324 322 321 319 316 314 313 315 313 304 283 254 233 221 217 219 224 227 224 223 226 225 223 220 217 214 208 200 198 202 203 200 199 204
321 290 134 126 50 102 103 311 40 19 345 323 354 35 35 241 257 312 297 262 284 289 306 337 345 5 24 53 3 357 357 354 353 352 349 348 345 342 344 341 338 338 335 332 331 329 327 327 328 329 325 323 322 320 319 319 317 313 311 314 314 310 294 265 242 228 221 219 223 228 224 222 225 227 225 224 221 215 206 198 198 199 199 197 194 197
320 288 153 127 8 113 177 239 174 62 13 7 50 39 302 239 194 266 329 313 306 316 319 325 344 360 11 16 4 355 351 346 346 347 344 344 343 342 344 343 341 340 337 335 334 332 330 325 326 328 324 321 321 319 320 320 319 315 312 314 314 312 304 280 252 235 226 220 221 227 225 219 220 224 226 226 222 215 208 204 204 203 200 198 194 192
309 290 164 143 38 152 187 238 285 74 65 91 133 92 323 328 343 349 356 314 303 318 322 320 323 346 44 23 4 351 345 342 342 342 342 341 341 341 343 344 343 341 340 338 334 332 330 325 325 326 323 320 320 320 321 321 321 317 313 315 318 316 313 295 263 242 231 222 221 226 226 218 217 222 225 226 223 217 211 207 207 207 206 203 198 196
255 267 279 175 159 188 204 23 6 22 45 92 148 91 16 287 298 299 227 243 298 315 322 313 308 333 67 27 355 344 341 342 341 339 339 337 338 339 340 341 343 341 339 338 336 332 329 326 324 324 322 320 319 319 321 321 321 319 314 315 320 319 318 310 283 252 236 226 222 225 226 221 219 223 226 226 226 223 217 206 203 209 208 200 197 200
258 253 282 283 229 252 41 79 45 27 34 25 34 51 342 286 275 268 241 227 288 306 319 306 300 326 86 23 344 341 340 343 341 339 340 337 336 336 337 339 341 339 337 337 337 332 329 327 324 324 323 321 320 320 321 322 321 319 317 315 317 320 318 318 306 272 243 231 226 224 225 225 223 225 227 225 225 226 223 211 203 207 204 200 203 204
318 274 272 280 289 358 73 110 105 44 56 62 57 83 264 275 276 293 321 334 305 297 305 292 290 342 88 355 343 344 337 339 340 342 342 338 335 335 336 338 338 338 338 336 336 333 329 328 325 325 324 323 322 321 322 323 321 318 317 314 314 319 320 318 315 295 258 238 233 228 225 225 225 225 226 223 222 222 220 213 210 208 201 200 202 200
221 272 272 275 272 108 111 136 145 106 243 202 132 137 257 265 275 299 321 326 304 292 298 292 285 310 101 346 336 340 335 337 344 345 344 342 339 336 338 339 336 335 336 335 335 334 331 330 328 327 326 325 323 322 322 322 320 317 315 314 312 316 319 318 317 311 281 246 236 233 228 226 225 224 223 223 222 219 214 211 210 207 201 199 200 200
217 274 288 288 275 188 161 169 171 199 244 241 209 193 260 274 269 274 280 277 275 274 293 293 290 334 45 353 333 339 338 342 348 347 346 347 341 339 342 341 336 333 332 333 335 336 335 334 332 329 328 327 323 321 321 320 320 317 313 313 313 311 315 318 316 316 300 263 241 234 231 227 226 225 222 222 221 218 214 211 205 201 200 199 200 203
245 272 277 293 290 271 277 285 228 244 264 258 242 218 232 265 267 268 268 262 264 257 249 272 289 324 346 340 338 343 341 343 349 348 348 349 343 342 343 340 336 334 333 334 335 335 338 337 335 332 329 328 324 322 320 319 319 317 313 311 311 309 310 317 318 316 311 284 251 239 237 231 227 225 223 222 221 219 215 210 202 199 202 201 197 199
252 268 257 275 287 290 298 306 319 311 282 265 254 239 236 252 262 262 265 276 303 306 282 279 296 307 319 331 338 340 339 341 346 346 346 349 344 342 342 338 337 337 337 338 336 335 339 341 338 335 332 329 326 323 321 320 318 317 316 313 311 310 311 317 320 316 313 298 266 248 243 237 233 230 224 219 218 217 212 208 204 202 209 211 201 198
259 268 243 231 255 276 287 291 293 285 268 260 262 259 247 238 240 244 254 284 323 305 294 325 319 298 308 325 332 335 336 336 340 340 342 346 342 340 342 340 339 339 341 342 339 337 339 341 339 336 334 331 328 326 324 321 320 319 318 314 311 312 314 317 319 317 315 305 281 258 242 234 233 235 229 217 212 213 212 213 214 212 216 217 212 207
272 280 257 227 260 277 280 281 283 272 259 254 258 265 254 236 236 244 254 270 282 275 289 314 312 300 305 317 326 335 333 330 330 330 335 341 338 340 343 342 340 341 342 343 340 339 338 338 338 338 335 332 329 328 326 324 323 323 321 317 312 313 317 319 319 316 318 311 282 258 244 235 232 237 236 223 211 211 214 216 217 218 219 218 215 212
278 286 281 277 285 285 280 282 281 261 251 252 256 263 257 240 238 246 257 263 257 258 274 289 294 297 306 319 327 328 324 321 320 324 334 341 341 342 344 342 341 341 343 343 340 337 335 335 337 338 337 334 331 329 328 326 325 324 323 321 318 318 320 321 320 317 318 318 290 256 239 236 235 238 242 237 221 213 213 212 212 214 215 214 214 213
268 283 314 295 289 286 279 278 260 246 254 266 266 263 253 239 235 242 255 258 252 259 271 279 286 292 308 341 328 317 316 319 322 327 335 342 345 344 342 343 343 342 343 342 338 336 335 333 334 337 337 335 332 331 329 327 325 324 323 323 322 322 321 319 320 318 317 318 308 270 233 233 237 235 239 243 235 224 217 211 210 212 211 211 212 212
245 270 282 279 282 287 277 199 237 256 274 274 266 256 245 232 226 234 246 249 245 260 276 279 282 293 330 343 323 315 317 322 328 334 334 338 346 345 342 344 344 341 342 341 338 336 336 333 332 333 333 331 330 332 330 327 325 324 323 323 321 321 320 318 317 317 317 317 312 296 236 229 240 240 238 240 238 231 224 215 213 215 214 210 208 206
253 271 280 275 279 289 300 278 278 286 284 274 264 253 238 220 218 233 243 248 246 250 267 279 290 309 327 323 315 317 322 324 332 336 332 336 344 344 344 344 342 340 342 341 338 336 336 333 330 328 328 328 329 331 330 327 326 324 321 319 318 318 318 318 317 318 318 317 314 312 273 225 237 246 245 244 244 244 240 230 221 221 221 214 206 205
255 261 271 275 275 284 303 316 296 283 279 288 6 294 221 204 221 241 249 257 256 246 251 270 289 299 305 309 312 318 319 322 327 327 329 338 341 340 342 343 342 341 341 341 339 337 336 333 329 326 326 328 331 332 330 328 327 324 320 318 318 321 322 321 321 320 319 320 319 320 317 265 249 259 260 251 245 250 253 246 230 223 224 217 206 204
245 245 252 255 261 279 301 306 284 277 286 355 45 65 113 180 243 258 263 264 260 252 249 258 273 285 297 307 311 313 316 318 318 318 331 346 345 343 341 342 344 342 342 342 340 338 337 332 328 326 326 331 335 335 332 331 330 326 323 322 324 326 326 325 323 322 323 327 327 326 330 326 280 266 271 263 247 242 247 247 240 230 224 216 208 205
234 232 243 251 256 274 287 273 267 295 308 258 243 192 135 182 232 253 268 264 250 246 247 251 266 284 299 306 308 314 319 316 307 308 359 358 351 348 340 340 344 343 343 344 341 340 339 333 328 327 327 332 337 336 335 334 332 329 326 326 329 329 328 326 324 326 327 327 327 329 332 334 324 282 259 251 244 242 243 243 242 238 230 221 216 212
228 230 238 249 252 268 280 273 276 295 291 250 222 208 192 203 217 246 280 280 250 231 235 247 269 291 302 306 311 318 319 311 301 326 32 7 351 347 340 338 341 342 343 343 340 339 337 333 332 331 331 334 337 337 337 335 332 331 329 330 332 333 332 330 328 329 328 324 324 326 326 327 327 317 289 259 245 244 248 249 247 243 236 228 222 217
219 228 232 244 244 247 277 283 282 288 291 220 151 181 176 164 133 244 284 288 242 197 207 245 279 300 308 311 317 320 319 314 308 347 23 2 346 344 340 338 340 341 343 344 341 337 334 334 336 335 335 336 336 338 340 338 336 335 335 336 337 335 335 335 331 327 324 320 319 321 321 321 320 317 311 300 279 257 248 248 249 249 246 240 233 223
210 230 235 246 256 254 268 279 274 279 296 79 134 153 149 149 163 214 273 285 166 163 202 259 289 307 314 316 319 319 320 318 316 340 0 348 338 340 340 338 340 341 342 345 344 338 336 336 336 338 340 339 336 337 340 342 341 340 340 342 341 338 338 336 332 328 322 318 316 315 315 316 314 311 308 304 298 287 267 249 246 247 247 246 245 238
196 221 226 237 254 257 259 268 269 273 287 263 181 169 153 154 176 237 276 277 147 182 252 284 302 314 317 316 318 318 320 320 318 328 337 333 332 336 337 336 339 341 343 345 343 339 337 337 335 340 346 343 335 335 338 341 343 343 342 343 343 341 339 334 330 326 321 316 314 311 309 309 308 306 303 300 298 295 288 272 257 249 244 244 244 242
199 214 225 238 254 255 254 262 268 272 276 253 214 186 160 165 203 253 287 4 181 270 294 297 303 316 319 315 317 319 320 322 318 316 323 327 330 334 335 334 336 340 345 345 342 341 340 338 337 340 345 344 339 340 342 341 341 343 341 342 343 343 337 331 327 325 322 319 315 310 308 306 303 300 298 295 293 290 286 278 266 256 249 246 242 237
224 223 227 237 251 256 258 264 269 275 267 173 170 164 167 198 245 272 314 7 306 300 318 301 302 317 317 314 318 317 316 319 316 314 319 327 331 332 334 335 335 339 344 344 345 348 344 339 339 340 343 346 345 345 347 346 344 344 342 340 341 340 335 331 329 325 322 320 317 314 312 307 303 300 295 290 287 286 282 277 269 259 251 247 245 240
251 248 244 237 242 255 260 255 263 279 165 142 149 157 187 223 291 339 318 301 305 310 307 299 305 319 315 314 318 316 315 317 315 316 320 326 330 332 334 336 336 338 342 343 346 349 344 338 339 340 343 350 349 344 347 350 347 345 344 341 339 337 335 334 333 329 324 321 318 315 312 308 304 300 293 287 283 279 276 274 269 260 249 241 239 237
258 250 258 255 241 248 252 247 265 301 147 160 170 184 217 238 283 313 299 290 299 303 301 303 314 324 319 315 315 314 315 315 313 317 321 323 328 331 333 337 337 337 340 342 343 345 341 337 340 340 342 352 353 346 347 351 347 345 345 342 338 337 338 338 336 333 329 324 319 316 311 307 303 297 290 285 281 274 270 268 264 259 251 241 235 232
243 242 272 285 266 257 266 277 305 360 153 178 205 268 280 261 268 279 280 284 290 297 304 305 314 325 321 313 312 312 315 318 317 318 320 321 325 329 332 336 337 337 339 340 342 344 340 337 340 340 341 350 355 350 348 350 349 346 343 340 340 341 341 339 338 336 332 328 324 319 314 307 299 290 283 278 273 267 264 261 257 255 250 242 237 236
245 254 275 283 274 271 270 269 269 261 232 218 232 265 280 274 266 259 260 272 283 294 301 300 308 323 320 313 312 312 316 322 319 315 319 321 322 328 332 333 335 338 339 340 342 342 339 337 341 342 342 348 354 353 348 347 347 342 336 336 340 342 340 339 338 336 334 331 328 323 317 309 299 289 279 270 264 259 257 254 252 250 248 242 237 238
254 255 255 260 266 268 264 258 258 262 258 245 241 254 264 265 260 253 252 264 278 286 293 297 300 307 310 310 313 314 316 319 316 314 321 323 322 327 332 332 334 339 340 340 340 338 338 340 344 345 344 346 350 352 348 346 345 340 335 336 339 341 341 340 339 337 334 331 328 324 318 309 299 289 278 268 258 251 247 244 243 243 244 242 239 238
266 247 257 264 261 260 265 270 275 276 269 256 252 258 263 260 253 245 245 253 263 271 277 277 273 288 303 311 314 315 313 313 316 318 322 323 323 326 330 331 334 339 341 341 339 337 339 342 343 343 342 343 346 348 347 346 345 341 339 340 341 344 345 342 340 338 333 328 325 321 314 306 296 286 274 262 252 246 242 237 234 235 237 246 251 248
36 229 261 272 271 268 270 273 273 271 263 258 255 255 259 263 256 242 235 235 241 253 258 248 246 274 300 308 309 310 306 308 319 323 321 323 324 324 328 332 335 338 342 342 337 335 338 340 339 340 341 341 343 344 344 345 345 343 343 342 344 347 346 342 340 338 333 330 326 320 315 309 295 278 261 247 238 232 232 257 250 240 113 67 51 352
230 245 257 268 269 267 272 275 274 269 265 264 258 244 246 261 258 245 235 230 235 248 252 247 252 271 289 297 301 305 305 311 323 325 322 323 325 325 328 331 332 336 341 340 335 335 338 340 340 340 340 340 341 341 341 343 344 345 346 346 346 348 346 342 340 338 335 336 334 328 324 318 303 270 235 231 222 170 95 71 59 70 81 79 71 62
230 243 251 263 267 270 280 285 280 269 268 271 266 252 248 252 249 245 240 235 239 243 239 241 259 280 295 302 302 304 308 314 320 323 323 324 325 328 330 330 330 334 335 334 336 338 340 341 341 341 340 340 340 340 341 342 345 347 349 349 349 349 348 345 343 341 341 342 340 337 336 335 330 257 205 217 201 133 100 85 76 75 81 87 85 80